TELSTAR 12V

Last updated on Mon Sep 07 2026 00:02:59 GMT+0000 (Coordinated Universal Time)

1 41036U 15068A 26249.36572433 .00000000 00000+0 00000+0 0 9998 2 41036 0.0221 149.6291 0002104 19.7780 292.7143 1.00270259 39446
UTC large
Height (km)
Speed (km/s)
/
Latitude / Longitude
Inclination (degrees)
Orbital Period (minutes)
Azimuth
Elevation
Range (km)
Doppler Factor

Next 0 passes for location: London (51.5072 / 0.1276)

No passes found over London.
TELSTAR 12V